Wind_Speed
99 105 98 88 85 86 87 92 87 80 84 91 84 75 74 82 81 78 72 69 71 66 66 66 70 67 67 66 66 66 65 64 66 69 64 65 62 56 49 46 44 38 33 31
109 105 83 88 90 91 90 88 80 83 85 89 83 78 76 79 79 79 74 72 71 65 66 70 70 64 65 66 64 63 63 63 65 67 60 62 54 49 45 44 40 35 34 35
107 89 91 91 92 100 95 90 84 86 88 90 87 87 77 73 76 75 72 68 66 62 67 70 66 63 64 63 63 60 60 61 63 57 60 55 51 43 42 40 37 37 37 39
105 86 89 94 96 91 90 85 83 84 86 87 91 82 73 74 75 70 67 60 62 62 66 66 60 60 63 61 59 57 58 59 56 55 55 49 44 41 41 37 36 36 40 37
94 94 91 94 80 82 79 80 85 84 84 84 79 83 66 71 70 71 62 64 58 61 61 58 55 57 57 56 53 54 56 55 50 53 47 45 39 38 36 33 35 36 33 34
101 100 99 89 81 86 76 83 83 79 81 74 62 73 55 61 67 67 61 60 59 58 53 52 53 53 51 48 50 52 50 45 49 45 44 40 36 33 31 32 35 30 29 33
107 110 102 94 92 86 84 78 78 73 66 54 51 56 49 53 52 52 55 56 56 54 49 46 49 46 42 45 49 46 40 45 42 41 41 33 31 28 28 30 29 31 33 30
113 118 106 93 94 83 83 77 71 63 58 52 58 48 41 48 45 44 47 49 48 46 40 40 38 36 41 45 39 35 40 39 38 40 32 27 24 23 25 27 30 29 29 24
127 116 107 107 97 94 83 85 58 67 59 54 46 38 42 47 44 44 44 39 42 37 31 28 34 36 37 32 31 35 36 35 37 32 22 21 19 21 21 25 25 28 24 18
109 116 113 107 100 98 94 73 80 70 61 47 46 40 44 44 40 40 35 29 23 21 22 30 32 29 26 27 31 33 30 33 32 22 18 15 15 19 18 20 20 20 17 11
94 94 101 110 107 98 90 88 80 72 65 58 49 40 42 33 31 33 28 19 19 23 26 25 25 22 23 27 31 26 29 32 23 15 13 7 12 15 16 16 14 15 14 12
90 86 87 93 105 101 91 86 80 73 62 49 37 41 43 28 30 25 19 23 24 22 24 24 23 21 25 29 25 24 29 26 14 12 4 3 11 12 12 12 11 13 14 12
81 79 79 82 85 84 93 87 83 79 68 58 45 51 41 36 27 23 23 24 20 20 21 23 23 21 25 23 21 24 25 19 9 6 7 1 6 7 8 11 12 12 10 13
66 78 82 79 69 78 81 82 84 81 71 56 47 48 38 34 29 26 27 24 21 27 26 23 19 22 21 17 20 23 20 13 7 5 9 3 5 10 8 10 11 12 10 10
57 67 79 81 75 80 73 74 81 80 68 56 47 46 38 35 31 30 29 23 22 27 24 18 19 21 14 16 19 22 16 10 6 7 14 7 2 8 11 12 8 13 13 13
54 64 77 80 80 78 72 79 83 81 69 57 46 46 40 35 30 36 33 23 20 19 16 19 17 17 11 15 16 21 14 9 5 6 18 11 6 4 11 11 11 14 16 15
52 62 73 84 84 73 73 73 79 81 65 55 49 49 42 38 37 40 34 26 21 18 23 16 19 13 11 14 15 18 13 8 4 4 17 17 10 2 6 10 8 14 15 9
53 61 75 88 81 75 73 72 80 75 63 59 54 55 41 41 37 42 33 23 18 25 23 17 16 10 11 11 13 16 11 5 3 4 12 20 15 8 6 6 8 3 8 15
55 66 78 81 81 80 77 77 81 73 69 65 61 54 44 41 34 30 26 21 26 28 22 22 14 11 9 10 13 13 10 2 2 4 10 19 20 12 7 3 3 7 7 12
59 68 72 79 85 88 86 82 80 72 68 63 58 46 40 30 34 30 24 20 26 27 25 22 15 12 9 8 11 10 8 2 3 3 7 12 17 14 9 5 3 4 4 6
59 68 78 89 90 87 86 86 83 80 72 66 61 49 48 47 42 34 32 34 34 31 28 20 17 13 8 6 7 6 5 4 4 4 6 5 9 13 11 9 6 9 6 6
63 75 86 88 92 94 88 86 84 73 71 66 59 54 52 47 45 42 38 40 37 36 29 21 18 13 9 6 5 2 4 6 6 5 6 7 5 4 9 13 9 10 9 9
63 75 86 93 96 98 91 86 82 79 73 68 61 57 55 51 48 46 42 40 39 38 29 25 23 14 10 7 4 1 3 7 10 8 6 7 7 7 5 7 10 12 12 12
63 78 90 96 101 94 95 89 84 79 79 71 65 60 57 52 51 45 40 35 38 35 32 30 25 16 11 8 5 1 2 7 10 12 9 8 7 7 7 7 6 5 8 11
60 74 88 99 101 97 94 90 84 81 79 71 66 61 57 55 52 44 39 38 41 36 37 33 28 20 15 11 7 4 2 7 10 12 13 11 10 8 8 8 8 8 8 7
58 72 84 94 94 96 93 88 84 82 78 71 65 61 57 54 51 45 39 40 43 43 41 36 30 24 21 16 10 7 4 3 7 10 11 14 14 12 10 8 8 8 9 9
Wind_Direction
244 245 249 254 252 246 247 252 252 251 251 257 259 257 260 264 268 272 273 273 275 275 278 280 281 281 285 288 290 293 297 300 303 305 309 309 306 311 312 309 313 312 306 298
245 247 248 245 247 249 251 253 253 253 254 258 260 262 268 267 267 268 270 270 272 273 273 277 278 280 282 285 289 293 296 298 303 307 307 307 309 313 309 314 315 312 306 303
246 245 242 244 245 252 252 255 249 250 252 259 268 270 268 261 264 265 266 266 268 270 270 272 275 279 281 284 288 292 295 300 303 305 307 306 313 309 312 312 309 307 308 308
246 243 244 246 248 250 249 247 247 251 256 262 264 268 263 261 266 263 262 265 271 268 268 271 275 278 279 283 287 292 296 299 303 306 304 312 309 309 313 312 308 312 314 314
245 245 246 246 249 246 248 247 249 252 258 261 261 267 259 263 261 261 266 270 268 266 267 271 273 273 278 282 288 292 295 299 304 303 306 311 306 313 314 311 313 321 313 310
242 244 243 246 241 245 244 248 252 253 257 268 260 266 265 261 258 266 271 268 265 263 267 268 270 275 278 282 287 292 295 301 302 302 310 307 311 315 310 316 322 318 310 302
240 241 242 242 242 243 245 248 254 259 265 265 257 271 260 258 275 275 266 263 262 262 261 263 267 273 277 281 288 291 298 302 300 305 309 307 312 312 316 325 321 314 310 308
242 241 240 242 244 242 244 248 252 257 255 251 260 270 258 265 274 272 268 262 261 257 257 262 268 269 278 285 287 295 300 297 300 311 304 308 314 316 321 324 317 307 309 306
240 242 239 238 239 240 244 247 249 245 248 254 256 254 257 274 270 265 265 264 253 251 256 260 259 273 280 283 293 298 297 299 309 305 304 311 311 321 318 325 316 308 308 319
235 238 239 238 238 238 240 239 241 247 249 249 251 251 259 277 267 264 263 254 246 242 241 248 262 272 277 290 298 297 299 303 308 298 307 305 319 324 322 323 314 314 320 345
231 231 232 234 236 235 237 240 243 241 244 247 247 251 265 268 267 262 252 225 213 228 242 251 259 269 287 291 300 295 304 308 301 308 303 305 331 329 323 322 329 327 341 352
226 223 225 225 231 232 233 234 234 236 238 237 238 245 250 253 258 249 223 195 219 243 246 260 267 273 293 299 291 304 311 310 303 324 256 332 335 338 339 349 340 346 353 10
224 217 219 220 223 225 227 228 229 230 231 231 226 239 244 256 247 232 200 208 238 250 249 258 269 279 289 293 296 314 315 308 323 313 191 11 5 350 341 6 4 1 358 29
219 212 211 215 210 219 222 220 223 227 230 225 223 238 244 245 231 218 203 217 239 253 257 265 267 286 291 291 312 320 318 310 331 235 188 186 80 35 25 21 17 21 35 41
211 206 206 211 204 209 206 213 216 222 221 220 218 232 233 231 229 210 210 231 232 246 256 258 277 290 280 303 322 328 321 310 296 212 196 185 149 41 37 26 42 37 42 42
204 201 201 200 199 203 203 199 207 214 213 213 215 225 225 225 220 209 215 217 227 249 252 261 296 277 283 306 330 333 330 300 290 230 206 201 197 18 32 33 26 52 37 57
198 197 196 197 196 193 198 200 206 209 206 204 208 219 220 217 216 214 206 210 216 246 248 266 299 254 286 309 331 335 329 293 293 255 214 209 205 246 7 25 30 38 20 60
193 189 192 197 189 191 194 198 202 204 199 200 204 217 212 210 212 210 206 196 227 249 253 263 281 250 275 308 337 334 335 300 303 293 217 212 206 234 277 357 12 63 60 47
187 185 191 191 186 189 193 195 198 197 195 197 211 214 208 202 206 195 192 210 241 249 247 259 254 245 259 303 323 331 341 312 3 327 207 211 212 224 234 302 349 4 52 56
183 186 187 181 185 188 191 193 194 195 196 203 211 209 207 197 195 192 195 214 232 239 246 261 225 244 254 299 319 331 344 53 71 49 184 204 209 212 210 199 283 156 64 81
183 182 181 183 182 186 189 190 192 190 190 198 206 202 202 202 198 202 218 224 224 236 242 245 216 229 246 281 312 333 3 71 107 112 107 169 203 206 204 188 203 191 170 83
182 182 181 179 183 185 189 191 191 188 193 200 202 198 201 204 204 207 208 211 224 237 242 213 218 216 221 254 298 331 44 65 90 114 125 119 123 178 205 196 182 190 188 138
183 183 180 180 182 184 187 189 188 187 196 199 199 197 201 204 210 214 222 227 233 236 225 203 211 203 210 222 258 318 104 74 78 102 124 121 117 111 115 195 209 201 195 179
184 184 181 183 185 185 184 187 187 186 197 197 198 197 201 206 214 217 223 219 222 219 197 204 204 197 204 214 222 220 96 104 90 88 107 127 125 125 126 126 129 160 199 198
186 186 185 185 184 186 186 188 187 190 197 196 198 198 199 206 213 216 215 214 213 203 196 201 200 192 203 205 208 186 164 106 104 94 92 105 104 119 123 122 121 125 127 142
187 189 188 189 186 185 188 190 190 193 197 198 197 199 200 206 210 211 208 213 207 201 199 198 200 194 201 201 209 199 176 170 108 99 98 99 97 95 103 118 126 127 129 131
Height
10657 10649 10677 10710 10708 10712 10718 10720 10736 10740 10739 10733 10750 10764 10766 10761 10762 10766 10768 10769 10769 10769 10765 10761 10757 10756 10753 10748 10743 10738 10733 10728 10722 10714 10706 10696 10687 10676 10668 10658 10650 10643 10638 10634
10623 10646 10689 10667 10674 10688 10702 10711 10725 10723 10726 10721 10737 10750 10759 10753 10751 10753 10756 10756 10755 10757 10753 10748 10745 10746 10743 10737 10734 10729 10724 10719 10713 10705 10697 10688 10678 10669 10659 10651 10643 10636 10633 10629
10603 10656 10633 10650 10661 10669 10687 10697 10702 10705 10704 10714 10727 10733 10741 10739 10737 10738 10740 10742 10743 10743 10738 10735 10735 10734 10731 10728 10725 10721 10716 10711 10704 10697 10687 10680 10670 10662 10652 10645 10638 10632 10628 10621
10587 10624 10627 10635 10643 10658 10672 10677 10676 10688 10696 10710 10705 10721 10726 10722 10725 10723 10724 10732 10731 10729 10726 10726 10725 10723 10719 10719 10716 10712 10708 10703 10696 10687 10680 10671 10663 10655 10646 10639 10634 10628 10619 10613
10595 10594 10609 10613 10646 10631 10664 10645 10667 10673 10686 10691 10700 10698 10721 10710 10710 10701 10717 10717 10719 10715 10715 10716 10714 10711 10712 10710 10707 10705 10700 10695 10688 10680 10672 10664 10657 10648 10640 10635 10628 10621 10614 10608
10571 10572 10579 10615 10623 10617 10637 10638 10649 10662 10670 10685 10688 10686 10711 10687 10691 10701 10706 10707 10705 10705 10706 10704 10704 10703 10703 10701 10700 10697 10692 10686 10680 10673 10666 10658 10649 10642 10636 10630 10623 10617 10611 10605
10553 10543 10563 10587 10595 10614 10616 10630 10639 10652 10665 10683 10673 10679 10687 10674 10692 10692 10693 10692 10693 10695 10694 10694 10695 10696 10695 10694 10692 10688 10685 10679 10672 10666 10658 10651 10644 10638 10632 10626 10621 10614 10607 10601
10514 10514 10551 10582 10582 10606 10605 10619 10634 10649 10655 10662 10663 10674 10671 10672 10679 10679 10681 10683 10685 10685 10685 10686 10688 10688 10689 10687 10684 10682 10678 10672 10666 10658 10652 10645 10639 10635 10629 10625 10618 10611 10603 10597
10480 10503 10534 10540 10569 10577 10603 10600 10643 10626 10642 10652 10659 10664 10660 10667 10667 10667 10671 10675 10674 10676 10678 10680 10682 10682 10681 10680 10679 10675 10671 10665 10658 10652 10646 10640 10636 10632 10627 10623 10615 10608 10601 10595
10456 10473 10510 10534 10548 10561 10573 10613 10600 10622 10637 10649 10651 10655 10655 10657 10659 10660 10663 10666 10667 10669 10673 10676 10676 10675 10675 10675 10672 10669 10664 10658 10652 10647 10641 10637 10635 10630 10626 10621 10614 10608 10601 10595
10434 10457 10486 10505 10522 10549 10570 10581 10602 10613 10626 10635 10643 10647 10650 10654 10654 10654 10656 10660 10662 10667 10669 10670 10670 10670 10670 10669 10666 10663 10658 10651 10646 10640 10636 10636 10632 10629 10625 10620 10614 10607 10601 10596
10405 10434 10457 10480 10497 10531 10556 10571 10586 10601 10619 10628 10636 10638 10637 10645 10646 10648 10652 10655 10660 10664 10665 10665 10665 10665 10665 10663 10660 10657 10652 10646 10640 10635 10635 10634 10632 10628 10625 10620 10614 10609 10603 10598
10387 10423 10445 10461 10481 10515 10529 10555 10574 10586 10601 10617 10626 10626 10633 10639 10641 10643 10648 10652 10657 10660 10660 10661 10661 10661 10660 10658 10656 10652 10647 10641 10636 10633 10634 10633 10632 10629 10626 10621 10615 10611 10606 10602
10373 10399 10424 10444 10478 10494 10511 10541 10559 10575 10595 10609 10617 10621 10630 10632 10635 10640 10645 10650 10654 10654 10656 10657 10658 10657 10655 10654 10651 10647 10641 10636 10633 10633 10633 10633 10632 10629 10626 10622 10618 10614 10610 10606
10363 10387 10407 10427 10452 10469 10499 10525 10546 10567 10586 10600 10608 10612 10621 10624 10630 10637 10641 10644 10647 10651 10653 10654 10654 10653 10651 10650 10647 10643 10637 10633 10632 10631 10632 10632 10631 10630 10627 10624 10620 10617 10614 10610
10354 10371 10392 10413 10433 10460 10491 10503 10528 10552 10574 10589 10600 10604 10611 10616 10625 10631 10635 10638 10643 10646 10648 10649 10650 10648 10648 10647 10644 10639 10634 10632 10630 10628 10629 10630 10631 10630 10628 10625 10623 10620 10617 10614
10347 10363 10384 10403 10422 10455 10479 10503 10525 10545 10566 10582 10591 10593 10603 10612 10617 10622 10628 10633 10638 10642 10644 10645 10645 10645 10645 10644 10641 10637 10633 10630 10627 10626 10626 10628 10630 10630 10629 10628 10626 10623 10620 10617
10342 10360 10374 10389 10422 10452 10476 10495 10517 10540 10559 10567 10576 10583 10596 10603 10610 10615 10623 10630 10633 10636 10640 10641 10641 10642 10643 10642 10639 10636 10631 10628 10626 10623 10623 10625 10628 10629 10630 10631 10629 10626 10624 10621
10339 10352 10363 10390 10421 10443 10468 10486 10506 10530 10544 10550 10562 10575 10588 10597 10605 10614 10621 10624 10629 10633 10636 10638 10639 10640 10640 10640 10638 10635 10630 10627 10624 10622 10621 10623 10626 10628 10630 10631 10631 10629 10627 10624
10332 10347 10366 10390 10412 10433 10453 10477 10502 10524 10540 10553 10560 10576 10587 10600 10603 10609 10614 10619 10623 10625 10630 10634 10636 10638 10638 10638 10637 10634 10630 10626 10624 10622 10621 10622 10624 10627 10629 10630 10631 10630 10630 10628
10331 10345 10362 10378 10402 10430 10450 10471 10493 10508 10530 10543 10553 10569 10577 10584 10595 10601 10607 10613 10618 10621 10626 10630 10633 10635 10636 10637 10636 10633 10630 10626 10624 10623 10622 10622 10623 10624 10627 10628 10630 10630 10632 10632
10328 10340 10356 10382 10400 10420 10444 10464 10484 10515 10523 10534 10547 10559 10569 10579 10587 10594 10599 10605 10611 10615 10622 10626 10630 10632 10633 10635 10636 10633 10630 10627 10624 10624 10624 10623 10623 10623 10625 10627 10628 10630 10632 10633
10330 10345 10361 10376 10394 10414 10443 10463 10484 10499 10513 10527 10540 10551 10562 10571 10579 10587 10594 10600 10605 10610 10617 10622 10626 10629 10632 10633 10635 10634 10631 10628 10625 10624 10624 10624 10624 10624 10624 10625 10627 10628 10630 10633
10333 10344 10359 10374 10389 10411 10431 10455 10475 10490 10500 10517 10531 10543 10554 10565 10572 10581 10587 10593 10598 10604 10612 10618 10623 10626 10629 10631 10633 10634 10632 10629 10627 10626 10625 10625 10625 10625 10625 10626 10626 10628 10629 10632
10334 10346 10359 10371 10391 10413 10432 10450 10466 10482 10494 10512 10525 10535 10547 10557 10566 10575 10581 10587 10592 10599 10606 10612 10618 10622 10626 10629 10631 10632 10633 10631 10629 10628 10627 10626 10626 10626 10627 10627 10628 10628 10630 10631
10335 10346 10360 10375 10396 10416 10433 10448 10462 10475 10488 10505 10519 10528 10540 10550 10559 10568 10575 10581 10587 10594 10601 10608 10614 10617 10622 10626 10628 10630 10632 10632 10631 10630 10630 10629 10628 10628 10628 10629 10629 10630 10631 10632